When you browse on this site, cookies collect data to enhance your experience and personalize the content and advertising you see.
Visit our Privacy Policy to learn more. By continuing to use the site, you agree to this use of cookies and data.
EN

Hourly Weather Niva

Today, 4 August, Tuesday

Time Temperature Precipitation Wind Pressure Humidity
00:00 +16°C° 0 mm 3 mps 751 mmHg 94%
01:00 +14°C° 0 mm 3 mps 751 mmHg 96%
02:00 +13°C° 0 mm 3 mps 751 mmHg 97%
03:00 +13°C° 0 mm 3 mps 752 mmHg 96%
04:00 +13°C° 0 mm 3 mps 752 mmHg 95%
05:00 +12°C° 0 mm 3 mps 752 mmHg 94%
06:00 +13°C° 0 mm 3 mps 752 mmHg 88%
07:00 +16°C° 0 mm 3 mps 752 mmHg 82%
08:00 +17°C° 0 mm 3 mps 753 mmHg 76%
09:00 +18°C° 0 mm 3 mps 753 mmHg 70%
10:00 +19°C° 0 mm 3 mps 753 mmHg 65%
11:00 +20°C° 0 mm 4 mps 753 mmHg 59%
12:00 +20°C° 0.1 mm 4 mps 753 mmHg 62%
13:00 +20°C° 0.1 mm 4 mps 753 mmHg 65%
14:00 +21°C° 0.1 mm 5 mps 753 mmHg 68%
15:00 +20°C° 0.1 mm 4 mps 753 mmHg 73%
16:00 +19°C° 0.1 mm 4 mps 753 mmHg 79%
17:00 +18°C° 0.1 mm 4 mps 753 mmHg 84%
18:00 +18°C° 1 mm 4 mps 752 mmHg 89%
19:00 +17°C° 1 mm 4 mps 752 mmHg 94%
20:00 +16°C° 1 mm 3 mps 752 mmHg 98%
21:00 +17°C° 1.4 mm 3 mps 752 mmHg 98%
22:00 +17°C° 1.4 mm 3 mps 752 mmHg 98%
23:00 +17°C° 1.4 mm 3 mps 751 mmHg 98%

Tomorrow, 5 August, Wednesday

Time Temperature Precipitation Wind Pressure Humidity
00:00 +17°C° 0.9 mm 3 mps 751 mmHg 98%
01:00 +17°C° 0.9 mm 4 mps 751 mmHg 98%
02:00 +17°C° 0.9 mm 4 mps 751 mmHg 98%
03:00 +17°C° 0.1 mm 4 mps 751 mmHg 97%
04:00 +17°C° 0.1 mm 4 mps 751 mmHg 96%
05:00 +15°C° 0.1 mm 4 mps 751 mmHg 96%
06:00 +17°C° 0 mm 4 mps 752 mmHg 92%
07:00 +17°C° 0 mm 4 mps 752 mmHg 89%
08:00 +18°C° 0 mm 3 mps 753 mmHg 85%
09:00 +19°C° 0 mm 4 mps 753 mmHg 75%
10:00 +20°C° 0 mm 4 mps 754 mmHg 65%
11:00 +21°C° 0 mm 4 mps 754 mmHg 55%
12:00 +21°C° 0 mm 4 mps 755 mmHg 53%
13:00 +22°C° 0 mm 4 mps 755 mmHg 51%
14:00 +22°C° 0 mm 4 mps 755 mmHg 49%
15:00 +22°C° 0 mm 4 mps 756 mmHg 49%
16:00 +22°C° 0 mm 4 mps 756 mmHg 49%
17:00 +22°C° 0 mm 4 mps 756 mmHg 49%
18:00 +20°C° 0 mm 3 mps 757 mmHg 56%
19:00 +19°C° 0 mm 3 mps 757 mmHg 63%
20:00 +18°C° 0 mm 3 mps 757 mmHg 69%
21:00 +17°C° 0 mm 3 mps 758 mmHg 73%
22:00 +17°C° 0 mm 3 mps 758 mmHg 77%
23:00 +16°C° 0 mm 3 mps 758 mmHg 81%

Day after tomorrow, 6 August, Thursday

Time Temperature Precipitation Wind Pressure Humidity
00:00 +16°C° 0 mm 3 mps 759 mmHg 79%
01:00 +16°C° 0 mm 3 mps 759 mmHg 77%
02:00 +16°C° 0 mm 3 mps 759 mmHg 75%
03:00 +14°C° 0 mm 3 mps 759 mmHg 77%
04:00 +14°C° 0 mm 3 mps 759 mmHg 79%
05:00 +13°C° 0 mm 3 mps 760 mmHg 81%
06:00 +14°C° 0 mm 3 mps 760 mmHg 78%
07:00 +16°C° 0 mm 3 mps 760 mmHg 74%
08:00 +17°C° 0 mm 3 mps 761 mmHg 71%
09:00 +18°C° 0 mm 3 mps 761 mmHg 68%
10:00 +18°C° 0 mm 3 mps 761 mmHg 65%
11:00 +19°C° 0 mm 3 mps 762 mmHg 63%
12:00 +18°C° 0 mm 2 mps 762 mmHg 66%
13:00 +18°C° 0 mm 2 mps 762 mmHg 70%
14:00 +18°C° 0 mm 2 mps 762 mmHg 73%
15:00 +18°C° 0 mm 2 mps 762 mmHg 76%
16:00 +18°C° 0 mm 2 mps 762 mmHg 79%
17:00 +19°C° 0 mm 1 mps 763 mmHg 82%
18:00 +18°C° 0 mm 1 mps 763 mmHg 85%
19:00 +18°C° 0 mm 1 mps 763 mmHg 89%
20:00 +15°C° 0 mm 0 mps 763 mmHg 92%
21:00 +15°C° 0 mm 0 mps 763 mmHg 93%
22:00 +14°C° 0 mm 0 mps 763 mmHg 94%
23:00 +14°C° 0 mm 0 mps 764 mmHg 95%

7 August, Friday

Time Temperature Precipitation Wind Pressure Humidity
00:00 +14°C° 0 mm 0 mps 764 mmHg 95%
01:00 +14°C° 0 mm 0 mps 764 mmHg 95%
02:00 +13°C° 0 mm 0 mps 764 mmHg 96%
03:00 +15°C° 0 mm 1 mps 765 mmHg 95%
04:00 +15°C° 0 mm 1 mps 765 mmHg 95%
05:00 +15°C° 0 mm 1 mps 765 mmHg 95%
06:00 +16°C° 0 mm 1 mps 765 mmHg 91%
07:00 +18°C° 0 mm 1 mps 765 mmHg 87%
08:00 +19°C° 0 mm 1 mps 765 mmHg 83%
09:00 +21°C° 0 mm 1 mps 766 mmHg 77%
10:00 +22°C° 0 mm 1 mps 766 mmHg 71%
11:00 +24°C° 0 mm 2 mps 766 mmHg 65%
12:00 +24°C° 0 mm 1 mps 766 mmHg 64%
13:00 +24°C° 0 mm 1 mps 766 mmHg 63%
14:00 +25°C° 0 mm 1 mps 766 mmHg 61%
15:00 +24°C° 0.1 mm 1 mps 766 mmHg 63%
16:00 +24°C° 0.1 mm 1 mps 766 mmHg 64%
17:00 +24°C° 0.1 mm 1 mps 765 mmHg 66%
18:00 +22°C° 0 mm 1 mps 766 mmHg 72%
19:00 +20°C° 0 mm 1 mps 766 mmHg 79%
20:00 +19°C° 0 mm 1 mps 766 mmHg 85%
21:00 +18°C° 0 mm 1 mps 766 mmHg 87%
22:00 +18°C° 0 mm 1 mps 766 mmHg 89%
23:00 +15°C° 0 mm 0 mps 766 mmHg 90%

8 August, Saturday

Time Temperature Precipitation Wind Pressure Humidity
00:00 +16°C° 0 mm 1 mps 766 mmHg 90%
01:00 +15°C° 0 mm 1 mps 767 mmHg 91%
02:00 +15°C° 0 mm 1 mps 767 mmHg 91%
03:00 +15°C° 0 mm 1 mps 767 mmHg 90%
04:00 +15°C° 0 mm 1 mps 767 mmHg 89%
05:00 +15°C° 0 mm 1 mps 767 mmHg 87%
06:00 +18°C° 0 mm 1 mps 767 mmHg 80%
07:00 +20°C° 0 mm 1 mps 767 mmHg 73%
08:00 +22°C° 0 mm 1 mps 767 mmHg 65%
09:00 +23°C° 0 mm 1 mps 767 mmHg 60%
10:00 +24°C° 0 mm 1 mps 767 mmHg 55%
11:00 +25°C° 0 mm 2 mps 767 mmHg 50%
12:00 +25°C° 0 mm 2 mps 766 mmHg 49%
13:00 +26°C° 0 mm 2 mps 766 mmHg 48%
14:00 +26°C° 0 mm 2 mps 766 mmHg 47%
15:00 +25°C° 0 mm 2 mps 765 mmHg 48%
16:00 +25°C° 0 mm 1 mps 765 mmHg 49%
17:00 +25°C° 0 mm 1 mps 765 mmHg 50%
18:00 +23°C° 0 mm 1 mps 765 mmHg 58%
19:00 +21°C° 0 mm 1 mps 765 mmHg 65%
20:00 +19°C° 0 mm 1 mps 765 mmHg 72%
21:00 +18°C° 0 mm 1 mps 765 mmHg 72%
22:00 +18°C° 0 mm 1 mps 765 mmHg 73%
23:00 +15°C° 0 mm 0 mps 765 mmHg 73%

9 August, Sunday

Time Temperature Precipitation Wind Pressure Humidity
00:00 +16°C° 0 mm 1 mps 765 mmHg 74%
01:00 +16°C° 0 mm 1 mps 765 mmHg 74%
02:00 +16°C° 0 mm 1 mps 765 mmHg 75%
03:00 +16°C° 0 mm 1 mps 764 mmHg 76%
04:00 +16°C° 0 mm 1 mps 764 mmHg 77%
05:00 +16°C° 0 mm 1 mps 764 mmHg 78%
06:00 +18°C° 0 mm 1 mps 764 mmHg 73%
07:00 +20°C° 0 mm 1 mps 764 mmHg 67%
08:00 +21°C° 0 mm 2 mps 764 mmHg 61%
09:00 +23°C° 0 mm 2 mps 764 mmHg 57%
10:00 +24°C° 0 mm 2 mps 764 mmHg 53%
11:00 +25°C° 0 mm 2 mps 763 mmHg 49%
12:00 +25°C° 0 mm 2 mps 763 mmHg 48%
13:00 +25°C° 0 mm 2 mps 763 mmHg 48%
14:00 +25°C° 0 mm 2 mps 762 mmHg 47%
15:00 +25°C° 0 mm 2 mps 762 mmHg 48%
16:00 +24°C° 0 mm 2 mps 762 mmHg 49%
17:00 +24°C° 0 mm 2 mps 761 mmHg 50%
18:00 +22°C° 0 mm 1 mps 761 mmHg 57%
19:00 +20°C° 0 mm 1 mps 761 mmHg 63%
20:00 +16°C° 0 mm 0 mps 761 mmHg 70%
21:00 +16°C° 0 mm 0 mps 761 mmHg 70%
22:00 +15°C° 0 mm 0 mps 761 mmHg 71%
23:00 +15°C° 0 mm 0 mps 761 mmHg 71%
Show more